******** Week 357 almanac for PRN-1 ******** ID: 1 Health: 0 Eccentricity: 0.001493453979 Time of Applicability(s): 147456 Orbital Inclination(rad): 0.9583988389 Rate of Right Ascen(r/s): -8.057478483e-09 SQRT(A) (m 1/2): 5153.578125 Right Ascen at Week(rad): -2.769804173 Argument of Perigee(rad): 0.03918804095 Mean Anom(rad): -0.06474814564 Af0(s): 0.0002637860107 Af1(s/s): -3.637979e-12 week: 357 ******** Week 357 almanac for PRN-2 ******** ID: 2 Health: 0 Eccentricity: 0.01695203781 Time of Applicability(s): 147456 Orbital Inclination(rad): 0.9637977322 Rate of Right Ascen(r/s): -7.966046103e-09 SQRT(A) (m 1/2): 5153.553223 Right Ascen at Week(rad): -2.932374303 Argument of Perigee(rad): -0.8285589752 Mean Anom(rad): 1.363802173 Af0(s): 2.788594971e-05 Af1(s/s): 7.275958e-12 week: 357 ******** Week 357 almanac for PRN-3 ******** ID: 3 Health: 0 Eccentricity: 0.006405353546 Time of Applicability(s): 147456 Orbital Inclination(rad): 0.9928474934 Rate of Right Ascen(r/s): -7.577458489e-09 SQRT(A) (m 1/2): 5153.597168 Right Ascen at Week(rad): -1.783382246 Argument of Perigee(rad): 1.204870753 Mean Anom(rad): -2.243688835 Af0(s): 0.0004537119385 Af1(s/s): -1.091394e-11 week: 357 ******** Week 357 almanac for PRN-4 ******** ID: 4 Health: 0 Eccentricity: 0.003736495972 Time of Applicability(s): 147456 Orbital Inclination(rad): 0.9705208824 Rate of Right Ascen(r/s): -7.737465153e-09 SQRT(A) (m 1/2): 5153.690918 Right Ascen at Week(rad): -0.7122254825 Argument of Perigee(rad): -2.892410284 Mean Anom(rad): 0.7705231191 Af0(s): 3.391534424e-05 Af1(s/s): 3.637979e-12 week: 357 ******** Week 357 almanac for PRN-5 ******** ID: 5 Health: 0 Eccentricity: 0.005371570587 Time of Applicability(s): 147456 Orbital Inclination(rad): 0.9794311536 Rate of Right Ascen(r/s): -7.726036106e-09 SQRT(A) (m 1/2): 5153.648926 Right Ascen at Week(rad): -1.842871939 Argument of Perigee(rad): 1.420191322 Mean Anom(rad): 1.411955912 Af0(s): -0.0001808818359 Af1(s/s): 0 week: 357 ******** Week 357 almanac for PRN-6 ******** ID: 6 Health: 0 Eccentricity: 0.003871917725 Time of Applicability(s): 147456 Orbital Inclination(rad): 0.9873347499 Rate of Right Ascen(r/s): -7.760323248e-09 SQRT(A) (m 1/2): 5153.578613 Right Ascen at Week(rad): -2.819859659 Argument of Perigee(rad): -0.5922184503 Mean Anom(rad): -0.895496489 Af0(s): -0.0004815978882 Af1(s/s): -3.637979e-12 week: 357 ******** Week 357 almanac for PRN-7 ******** ID: 7 Health: 0 Eccentricity: 0.02033185959 Time of Applicability(s): 147456 Orbital Inclination(rad): 0.9512023118 Rate of Right Ascen(r/s): -7.863184676e-09 SQRT(A) (m 1/2): 5153.573242 Right Ascen at Week(rad): 0.2963020963 Argument of Perigee(rad): -1.998525673 Mean Anom(rad): -1.78145316 Af0(s): -0.0001160658447 Af1(s/s): -3.637979e-12 week: 357 ******** Week 357 almanac for PRN-8 ******** ID: 8 Health: 0 Eccentricity: 0.01152324677 Time of Applicability(s): 147456 Orbital Inclination(rad): 0.9437661003 Rate of Right Ascen(r/s): -8.068907531e-09 SQRT(A) (m 1/2): 5153.625977 Right Ascen at Week(rad): 2.344302769 Argument of Perigee(rad): 0.5132577629 Mean Anom(rad): 1.05841154 Af0(s): 0.0003904032959 Af1(s/s): -3.637979e-12 week: 357 ******** Week 357 almanac for PRN-9 ******** ID: 9 Health: 0 Eccentricity: 0.003393650055 Time of Applicability(s): 147456 Orbital Inclination(rad): 0.9646366279 Rate of Right Ascen(r/s): -7.806039438e-09 SQRT(A) (m 1/2): 5153.738281 Right Ascen at Week(rad): -0.7763197388 Argument of Perigee(rad): 2.074989522 Mean Anom(rad): 1.651429563 Af0(s): 0.0006082151733 Af1(s/s): 0 week: 357 ******** Week 357 almanac for PRN-10 ******** ID: 10 Health: 0 Eccentricity: 0.01096487045 Time of Applicability(s): 147456 Orbital Inclination(rad): 0.9923861007 Rate of Right Ascen(r/s): -7.588887536e-09 SQRT(A) (m 1/2): 5153.608887 Right Ascen at Week(rad): -1.785892567 Argument of Perigee(rad): -2.259038754 Mean Anom(rad): 3.057733416 Af0(s): -0.0004642633789 Af1(s/s): 0 week: 357 ******** Week 357 almanac for PRN-11 ******** ID: 11 Health: 0 Eccentricity: 0.002217292786 Time of Applicability(s): 147456 Orbital Inclination(rad): 0.9641812274 Rate of Right Ascen(r/s): -7.988904198e-09 SQRT(A) (m 1/2): 5153.515137 Right Ascen at Week(rad): -2.800605504 Argument of Perigee(rad): -2.290663626 Mean Anom(rad): 0.140910142 Af0(s): -0.0003512122314 Af1(s/s): 1.455192e-11 week: 357 ******** Week 357 almanac for PRN-12 ******** ID: 12 Health: 0 Eccentricity: 0.009055137634 Time of Applicability(s): 147456 Orbital Inclination(rad): 0.9588482473 Rate of Right Ascen(r/s): -7.760323248e-09 SQRT(A) (m 1/2): 5153.735352 Right Ascen at Week(rad): 1.414034426 Argument of Perigee(rad): 1.552171344 Mean Anom(rad): -2.415707403 Af0(s): -0.0004800905395 Af1(s/s): 0 week: 357 ******** Week 357 almanac for PRN-13 ******** ID: 13 Health: 0 Eccentricity: 0.009945392609 Time of Applicability(s): 147456 Orbital Inclination(rad): 0.9762313655 Rate of Right Ascen(r/s): -7.691748963e-09 SQRT(A) (m 1/2): 5153.62207 Right Ascen at Week(rad): -0.6015159618 Argument of Perigee(rad): 0.9991671501 Mean Anom(rad): 0.7974988603 Af0(s): 0.0005433991821 Af1(s/s): 0 week: 357 ******** Week 357 almanac for PRN-14 ******** ID: 14 Health: 0 Eccentricity: 0.006608963013 Time of Applicability(s): 147456 Orbital Inclination(rad): 0.9422141431 Rate of Right Ascen(r/s): -7.931758961e-09 SQRT(A) (m 1/2): 5153.595215 Right Ascen at Week(rad): 1.359714804 Argument of Perigee(rad): -2.757372412 Mean Anom(rad): -2.595619456 Af0(s): 0.0005795755493 Af1(s/s): 3.637979e-12 week: 357 ******** Week 357 almanac for PRN-15 ******** ID: 15 Health: 0 Eccentricity: 0.01659345627 Time of Applicability(s): 147456 Orbital Inclination(rad): 0.942417875 Rate of Right Ascen(r/s): -8.046049436e-09 SQRT(A) (m 1/2): 5153.630859 Right Ascen at Week(rad): -0.9198536771 Argument of Perigee(rad): 1.497971189 Mean Anom(rad): 0.05569893231 Af0(s): 0.0003037307495 Af1(s/s): 3.637979e-12 week: 357 ******** Week 357 almanac for PRN-16 ******** ID: 16 Health: 0 Eccentricity: 0.01505899429 Time of Applicability(s): 147456 Orbital Inclination(rad): 0.9579853831 Rate of Right Ascen(r/s): -7.794610391e-09 SQRT(A) (m 1/2): 5153.586426 Right Ascen at Week(rad): 1.431053524 Argument of Perigee(rad): 0.9261776028 Mean Anom(rad): 2.071755654 Af0(s): 0.000162039978 Af1(s/s): 7.275958e-12 week: 357 ******** Week 357 almanac for PRN-17 ******** ID: 17 Health: 0 Eccentricity: 0.01273298264 Time of Applicability(s): 147456 Orbital Inclination(rad): 0.9595313481 Rate of Right Ascen(r/s): -7.943188008e-09 SQRT(A) (m 1/2): 5153.530273 Right Ascen at Week(rad): 2.448664396 Argument of Perigee(rad): -1.126690538 Mean Anom(rad): 0.9673887307 Af0(s): -4.59741333e-05 Af1(s/s): -1.091394e-11 week: 357 ******** Week 357 almanac for PRN-18 ******** ID: 18 Health: 0 Eccentricity: 0.005708217621 Time of Applicability(s): 147456 Orbital Inclination(rad): 0.9722825634 Rate of Right Ascen(r/s): -7.908900866e-09 SQRT(A) (m 1/2): 5153.594727 Right Ascen at Week(rad): -2.82459193 Argument of Perigee(rad): -2.860804887 Mean Anom(rad): -1.015835709 Af0(s): -0.0003391534424 Af1(s/s): 1.091394e-11 week: 357 ******** Week 357 almanac for PRN-19 ******** ID: 19 Health: 0 Eccentricity: 0.01104021072 Time of Applicability(s): 147456 Orbital Inclination(rad): 0.9587343972 Rate of Right Ascen(r/s): -7.943188008e-09 SQRT(A) (m 1/2): 5153.665039 Right Ascen at Week(rad): 2.492563361 Argument of Perigee(rad): 2.923194013 Mean Anom(rad): 2.807257872 Af0(s): 0.0005449065308 Af1(s/s): 0 week: 357 ******** Week 357 almanac for PRN-20 ******** ID: 20 Health: 255 Eccentricity: 0.0003080368042 Time of Applicability(s): 147456 Orbital Inclination(rad): 0.960058654 Rate of Right Ascen(r/s): -7.851755628e-09 SQRT(A) (m 1/2): 5153.63916 Right Ascen at Week(rad): -0.7706081322 Argument of Perigee(rad): 1.495673588 Mean Anom(rad): 0.3256098928 Af0(s): 0 Af1(s/s): 0 week: 357 ******** Week 357 almanac for PRN-21 ******** ID: 21 Health: 0 Eccentricity: 0.0006608963013 Time of Applicability(s): 147456 Orbital Inclination(rad): 0.9622697435 Rate of Right Ascen(r/s): -7.897471818e-09 SQRT(A) (m 1/2): 5153.705566 Right Ascen at Week(rad): -1.776496185 Argument of Perigee(rad): -0.4155267833 Mean Anom(rad): -2.630765068 Af0(s): 0.0003127748413 Af1(s/s): 7.275958e-12 week: 357 ******** Week 357 almanac for PRN-22 ******** ID: 22 Health: 0 Eccentricity: 0.01215219498 Time of Applicability(s): 147456 Orbital Inclination(rad): 0.9574341088 Rate of Right Ascen(r/s): -7.794610391e-09 SQRT(A) (m 1/2): 5153.576172 Right Ascen at Week(rad): 1.434400119 Argument of Perigee(rad): -0.9945992878 Mean Anom(rad): 1.617632551 Af0(s): -3.843739014e-05 Af1(s/s): 3.637979e-12 week: 357 ******** Week 357 almanac for PRN-23 ******** ID: 23 Health: 0 Eccentricity: 0.006015777588 Time of Applicability(s): 147456 Orbital Inclination(rad): 0.9873886789 Rate of Right Ascen(r/s): -7.646032773e-09 SQRT(A) (m 1/2): 5153.65918 Right Ascen at Week(rad): -1.817890073 Argument of Perigee(rad): -2.740671271 Mean Anom(rad): -2.134642874 Af0(s): 0.0004823515625 Af1(s/s): 3.637979e-12 week: 357 ******** Week 357 almanac for PRN-24 ******** ID: 24 Health: 0 Eccentricity: 0.01786756515 Time of Applicability(s): 147456 Orbital Inclination(rad): 0.93522734 Rate of Right Ascen(r/s): -8.057478483e-09 SQRT(A) (m 1/2): 5153.590332 Right Ascen at Week(rad): 0.1882159973 Argument of Perigee(rad): 1.132709241 Mean Anom(rad): -0.8003035435 Af0(s): -0.0001017460327 Af1(s/s): 1.455192e-11 week: 357 ******** Week 357 almanac for PRN-25 ******** ID: 25 Health: 0 Eccentricity: 0.01295232773 Time of Applicability(s): 147456 Orbital Inclination(rad): 0.9472235491 Rate of Right Ascen(r/s): -7.874613723e-09 SQRT(A) (m 1/2): 5153.679199 Right Ascen at Week(rad): 1.320413287 Argument of Perigee(rad): 1.154113815 Mean Anom(rad): -2.563745912 Af0(s): 0.0003512122314 Af1(s/s): -3.637979e-12 week: 357 ******** Week 357 almanac for PRN-26 ******** ID: 26 Health: 0 Eccentricity: 0.01099729538 Time of Applicability(s): 147456 Orbital Inclination(rad): 0.9280188287 Rate of Right Ascen(r/s): -8.091765626e-09 SQRT(A) (m 1/2): 5153.647949 Right Ascen at Week(rad): 1.24624966 Argument of Perigee(rad): 0.7063408535 Mean Anom(rad): 2.895264027 Af0(s): -0.0002562492676 Af1(s/s): -7.275958e-12 week: 357 ******** Week 357 almanac for PRN-27 ******** ID: 27 Health: 0 Eccentricity: 0.01429128647 Time of Applicability(s): 147456 Orbital Inclination(rad): 0.9528860954 Rate of Right Ascen(r/s): -7.988904198e-09 SQRT(A) (m 1/2): 5153.615234 Right Ascen at Week(rad): 2.376143732 Argument of Perigee(rad): 0.8735271577 Mean Anom(rad): 1.154094341 Af0(s): -2.939329834e-05 Af1(s/s): -1.091394e-11 week: 357 ******** Week 357 almanac for PRN-28 ******** ID: 28 Health: 0 Eccentricity: 0.000403881073 Time of Applicability(s): 147456 Orbital Inclination(rad): 0.9621618855 Rate of Right Ascen(r/s): -7.771752296e-09 SQRT(A) (m 1/2): 5153.726074 Right Ascen at Week(rad): 0.2703277868 Argument of Perigee(rad): 0.1927415402 Mean Anom(rad): -1.62240377 Af0(s): -0.0004725537964 Af1(s/s): 7.275958e-12 week: 357 ******** Week 357 almanac for PRN-29 ******** ID: 29 Health: 0 Eccentricity: 0.003301620483 Time of Applicability(s): 147456 Orbital Inclination(rad): 0.9621858539 Rate of Right Ascen(r/s): -7.920329913e-09 SQRT(A) (m 1/2): 5153.723145 Right Ascen at Week(rad): 2.465323218 Argument of Perigee(rad): 2.741533012 Mean Anom(rad): 1.026931603 Af0(s): -0.0002992087036 Af1(s/s): 7.275958e-12 week: 357 ******** Week 357 almanac for PRN-30 ******** ID: 30 Health: 0 Eccentricity: 0.007971286774 Time of Applicability(s): 147456 Orbital Inclination(rad): 0.9364557231 Rate of Right Ascen(r/s): -8.023191341e-09 SQRT(A) (m 1/2): 5153.709473 Right Ascen at Week(rad): 0.2876086646 Argument of Perigee(rad): -2.333732309 Mean Anom(rad): -1.920174683 Af0(s): 9.119459228e-05 Af1(s/s): 1.091394e-11 week: 357 ******** Week 357 almanac for PRN-31 ******** ID: 31 Health: 0 Eccentricity: 0.01083755493 Time of Applicability(s): 147456 Orbital Inclination(rad): 0.9549593663 Rate of Right Ascen(r/s): -7.828897533e-09 SQRT(A) (m 1/2): 5153.713867 Right Ascen at Week(rad): 0.3204229704 Argument of Perigee(rad): 0.9362855475 Mean Anom(rad): -2.869335033 Af0(s): -0.0001326466797 Af1(s/s): 3.637979e-12 week: 357 ******** Week 357 almanac for PRN-32 ******** ID: 32 Health: 0 Eccentricity: 0.00928735733 Time of Applicability(s): 147456 Orbital Inclination(rad): 0.9676985974 Rate of Right Ascen(r/s): -7.737465153e-09 SQRT(A) (m 1/2): 5153.672852 Right Ascen at Week(rad): -0.7593890251 Argument of Perigee(rad): -2.012013544 Mean Anom(rad): 1.746988402 Af0(s): -7.988947754e-05 Af1(s/s): 1.818989e-11 week: 357